Location: Baia de Cri?
(46.1667°N, 22.7167°E)
Time: 08:09:12
(UTC+00:00)

GEOS 3 Rocket - Pass Details

Date: 15 January 2026
Orbit: 768 x 845 km, 115.0° (Epoch: 9 February)

Event Time Altitude Azimuth Distance (km) Brightness Sun altitude
Rises 04:27:46 0° 150° (SSE) 3,297 7.4 -16.9°
Reaches altitude 10° 04:30:04 10° 154° (SSE) 2,381 6.6 -16.5°
Maximum altitude 04:35:11 62° 235° (SW) 916 3.7 -15.6°
Enters shadow 04:39:01 19° 312° (NW) 1,889 5.0 -15.0°
